ANA9197 RJAA-RJTT

Flight info

Callsign ANA9197
Flight time 0h 20m
Altitude 12000
Route PEDLA Y824 AROSA
Aircraft B77L/H-SDE1E2E3FGHIJ2J3J4J5M1RWXY/LB1D1

Departure

Time 2026-02-17 13:25
Airport Narita International Airport (RJAA)

Arrival

Time 2026-02-17 13:45
Airport Tokyo Haneda International Airport (RJTT)
Time Latitude Longitude Altitude Speed Heading
2026-02-17 13:07 35.77002 140.37931 148 ft 0 kts 59°
2026-02-17 13:12 35.76998 140.37922 148 ft 3 kts 59°
2026-02-17 13:12 35.76988 140.37900 148 ft 3 kts 61°
2026-02-17 13:12 35.76978 140.37878 148 ft 3 kts 65°
2026-02-17 13:12 35.76971 140.37856 148 ft 3 kts 75°
2026-02-17 13:13 35.76967 140.37833 148 ft 3 kts 93°
2026-02-17 13:13 35.76969 140.37815 148 ft 3 kts 127°
2026-02-17 13:13 35.76974 140.37807 148 ft 0 kts 149°
2026-02-17 13:16 35.76964 140.37814 148 ft 5 kts 149°
2026-02-17 13:16 35.76928 140.37840 148 ft 7 kts 150°
2026-02-17 13:16 35.76880 140.37875 148 ft 9 kts 149°
2026-02-17 13:17 35.76820 140.37918 148 ft 11 kts 149°
2026-02-17 13:17 35.76750 140.37968 148 ft 13 kts 149°
2026-02-17 13:17 35.76669 140.38026 148 ft 14 kts 149°
2026-02-17 13:17 35.76597 140.38078 148 ft 2 kts 149°
2026-02-17 13:18 35.76574 140.38086 148 ft 5 kts 176°
2026-02-17 13:18 35.76522 140.38069 148 ft 10 kts 206°
2026-02-17 13:18 35.76455 140.38003 148 ft 14 kts 235°
2026-02-17 13:19 35.76396 140.37950 148 ft 3 kts 243°
2026-02-17 13:19 35.76392 140.37913 148 ft 7 kts 257°
2026-02-17 13:19 35.76347 140.37882 148 ft 9 kts 164°
2026-02-17 13:19 35.76285 140.37919 148 ft 11 kts 150°
2026-02-17 13:20 35.76216 140.37969 148 ft 12 kts 149°
2026-02-17 13:20 35.76136 140.38027 148 ft 14 kts 149°
2026-02-17 13:20 35.76049 140.38090 148 ft 15 kts 149°
2026-02-17 13:20 35.75953 140.38159 149 ft 17 kts 149°
2026-02-17 13:21 35.75849 140.38233 149 ft 17 kts 149°
2026-02-17 13:21 35.75743 140.38310 149 ft 18 kts 149°
2026-02-17 13:21 35.75630 140.38392 149 ft 20 kts 149°
2026-02-17 13:21 35.75511 140.38478 149 ft 20 kts 149°
2026-02-17 13:22 35.75391 140.38564 149 ft 20 kts 149°
2026-02-17 13:22 35.75265 140.38654 149 ft 21 kts 149°
2026-02-17 13:22 35.75141 140.38744 149 ft 21 kts 149°
2026-02-17 13:23 35.74893 140.38923 149 ft 17 kts 149°
2026-02-17 13:23 35.74786 140.39000 149 ft 19 kts 149°
2026-02-17 13:23 35.74670 140.39083 148 ft 20 kts 150°
2026-02-17 13:23 35.74558 140.39166 148 ft 17 kts 148°
2026-02-17 13:24 35.74456 140.39231 148 ft 15 kts 173°
2026-02-17 13:24 35.74381 140.39145 147 ft 17 kts 239°
2026-02-17 13:24 35.74405 140.39020 147 ft 17 kts 324°
2026-02-17 13:24 35.74511 140.38945 147 ft 18 kts 330°
2026-02-17 13:25 35.74718 140.38793 149 ft 69 kts 331°
2026-02-17 13:25 35.75441 140.38269 208 ft 162 kts 330°
2026-02-17 13:25 35.76444 140.37560 1324 ft 163 kts 333°
2026-02-17 13:25 35.77439 140.36858 2538 ft 169 kts 333°
2026-02-17 13:26 35.78514 140.36092 3512 ft 194 kts 330°
2026-02-17 13:26 35.79772 140.35185 4129 ft 227 kts 328°
2026-02-17 13:26 35.81251 140.34109 4768 ft 261 kts 327°
2026-02-17 13:27 35.84422 140.31794 6026 ft 269 kts 325°
2026-02-17 13:27 35.86051 140.30600 5995 ft 274 kts 325°
2026-02-17 13:27 35.87621 140.29342 5987 ft 263 kts 313°
2026-02-17 13:27 35.88585 140.27493 5997 ft 256 kts 283°
2026-02-17 13:28 35.88697 140.25350 6005 ft 250 kts 258°
2026-02-17 13:28 35.88067 140.23385 6009 ft 248 kts 236°
2026-02-17 13:28 35.86864 140.21915 5998 ft 250 kts 213°
2026-02-17 13:28 35.85226 140.21190 5995 ft 254 kts 189°
2026-02-17 13:29 35.83453 140.21353 5999 ft 260 kts 166°
2026-02-17 13:29 35.81866 140.22411 6009 ft 261 kts 150°
2026-02-17 13:29 35.80326 140.23659 6007 ft 268 kts 151°
2026-02-17 13:29 35.78762 140.24906 6006 ft 267 kts 151°
2026-02-17 13:30 35.77197 140.26089 5981 ft 258 kts 159°
2026-02-17 13:30 35.75479 140.26585 6010 ft 255 kts 178°
2026-02-17 13:30 35.73715 140.26694 5994 ft 259 kts 181°
2026-02-17 13:31 35.70134 140.26783 5994 ft 256 kts 182°
2026-02-17 13:31 35.68353 140.26817 5992 ft 255 kts 182°
2026-02-17 13:31 35.66584 140.26848 5997 ft 254 kts 182°
2026-02-17 13:31 35.64814 140.26876 5996 ft 254 kts 182°
2026-02-17 13:32 35.63045 140.26901 5995 ft 255 kts 182°
2026-02-17 13:32 35.61274 140.26922 6001 ft 255 kts 182°
2026-02-17 13:32 35.59488 140.26941 6169 ft 258 kts 182°
2026-02-17 13:32 35.57691 140.26963 6550 ft 259 kts 182°
2026-02-17 13:33 35.55918 140.26995 6969 ft 258 kts 182°
2026-02-17 13:33 35.54118 140.27038 7313 ft 259 kts 182°
2026-02-17 13:33 35.52313 140.27089 7535 ft 261 kts 182°
2026-02-17 13:33 35.50495 140.27147 7744 ft 262 kts 182°
2026-02-17 13:34 35.48661 140.27210 7879 ft 265 kts 182°
2026-02-17 13:34 35.46825 140.27266 7923 ft 260 kts 185°
2026-02-17 13:34 35.45093 140.26776 7970 ft 256 kts 206°
2026-02-17 13:35 35.41947 140.24695 7964 ft 256 kts 212°
2026-02-17 13:35 35.40406 140.23609 7965 ft 255 kts 212°
2026-02-17 13:35 35.38873 140.22524 7966 ft 254 kts 212°
2026-02-17 13:35 35.37346 140.21440 7965 ft 253 kts 212°
2026-02-17 13:36 35.35828 140.20358 7960 ft 253 kts 212°
2026-02-17 13:36 35.34522 140.19037 7959 ft 249 kts 236°
2026-02-17 13:36 35.33725 140.17153 7709 ft 252 kts 244°
2026-02-17 13:36 35.32968 140.15222 7379 ft 252 kts 243°
2026-02-17 13:37 35.32195 140.13328 6960 ft 251 kts 242°
2026-02-17 13:37 35.31400 140.11426 6505 ft 251 kts 242°
2026-02-17 13:37 35.30594 140.09534 6029 ft 252 kts 241°
2026-02-17 13:37 35.29771 140.07628 5520 ft 253 kts 240°
2026-02-17 13:38 35.28941 140.05724 5096 ft 254 kts 240°
2026-02-17 13:38 35.28085 140.03771 4996 ft 262 kts 240°
2026-02-17 13:38 35.27236 140.01833 4957 ft 252 kts 240°
2026-02-17 13:39 35.26936 139.98020 4957 ft 233 kts 296°
2026-02-17 13:39 35.28048 139.96608 4978 ft 234 kts 327°
2026-02-17 13:39 35.29493 139.95643 4973 ft 239 kts 329°
2026-02-17 13:39 35.30959 139.94648 4987 ft 243 kts 328°
2026-02-17 13:40 35.32411 139.93637 4968 ft 237 kts 328°
2026-02-17 13:40 35.33833 139.92635 4658 ft 235 kts 328°
2026-02-17 13:40 35.35243 139.91637 4325 ft 232 kts 328°
2026-02-17 13:40 35.36632 139.90654 4001 ft 229 kts 329°
2026-02-17 13:41 35.37538 139.90012 3789 ft 227 kts 329°
2026-02-17 13:41 35.38898 139.89048 3484 ft 225 kts 330°
2026-02-17 13:41 35.40665 139.87794 3069 ft 219 kts 330°
2026-02-17 13:41 35.41939 139.86890 2804 ft 202 kts 331°
2026-02-17 13:42 35.43110 139.86059 2517 ft 190 kts 331°
2026-02-17 13:42 35.44229 139.85265 2239 ft 181 kts 332°
2026-02-17 13:42 35.44927 139.84770 2125 ft 170 kts 332°
2026-02-17 13:43 35.46908 139.83364 1627 ft 163 kts 332°
2026-02-17 13:43 35.47876 139.82676 1394 ft 157 kts 332°
2026-02-17 13:43 35.48773 139.82038 1177 ft 140 kts 333°
2026-02-17 13:43 35.49596 139.81454 1017 ft 138 kts 332°
2026-02-17 13:44 35.50423 139.80865 793 ft 136 kts 331°
2026-02-17 13:44 35.51233 139.80287 625 ft 133 kts 332°
2026-02-17 13:44 35.52031 139.79727 448 ft 133 kts 332°
2026-02-17 13:44 35.52816 139.79167 268 ft 131 kts 331°
2026-02-17 13:45 35.53605 139.78605 95 ft 131 kts 332°
2026-02-17 13:45 35.54350 139.78077 30 ft 103 kts 330°
2026-02-17 13:45 35.54773 139.77776 28 ft 39 kts 330°
2026-02-17 13:45 35.55001 139.77618 31 ft 36 kts 330°
2026-02-17 13:46 35.55161 139.77471 30 ft 20 kts 337°
2026-02-17 13:46 35.55260 139.77358 29 ft 20 kts 305°
2026-02-17 13:46 35.55319 139.77233 29 ft 6 kts 295°
2026-02-17 13:47 35.55335 139.77191 29 ft 1 kts 295°
2026-02-17 13:47 35.55338 139.77171 27 ft 4 kts 270°
2026-02-17 13:47 35.55315 139.77153 30 ft 5 kts 182°
2026-02-17 13:47 35.55278 139.77165 30 ft 6 kts 155°
2026-02-17 13:48 35.55238 139.77189 31 ft 6 kts 153°
2026-02-17 13:48 35.55199 139.77217 27 ft 7 kts 148°
2026-02-17 13:48 35.55145 139.77256 29 ft 11 kts 150°
2026-02-17 13:48 35.55068 139.77312 28 ft 14 kts 149°
2026-02-17 13:49 35.54978 139.77375 28 ft 16 kts 150°
2026-02-17 13:49 35.54894 139.77409 26 ft 13 kts 194°
2026-02-17 13:49 35.54841 139.77324 27 ft 13 kts 240°
2026-02-17 13:49 35.54796 139.77227 29 ft 13 kts 240°
2026-02-17 13:50 35.54757 139.77149 28 ft 10 kts 238°
2026-02-17 13:50 35.54696 139.77086 26 ft 13 kts 189°
2026-02-17 13:50 35.54680 139.77088 26 ft 2 kts 164°
2026-02-17 13:51 35.54631 139.77120 29 ft 5 kts 150°
2026-02-17 13:51 35.54614 139.77135 28 ft 6 kts 131°
2026-02-17 13:51 35.54624 139.77195 28 ft 8 kts 68°
2026-02-17 13:51 35.54642 139.77235 28 ft 0 kts 61°
2026-02-17 13:52 35.54642 139.77236 28 ft 0 kts 59°